Location: Ulm
(48.3980°N, 9.9777°E)
Time: 08:42:00
(UTC+02:00)

ISS - Visible Passes

Search period start: 24 September 2017 00:00
Search period end: 04 October 2017 00:00
Orbit: 401 x 407 km, 51.6° (Epoch: 24 September)

Date Brightness Start Highest point End Pass type
(mag) Time Alt. Az. Time Alt. Az. Time Alt. Az.
25 Sep -1.3 21:18:52 10° SW 21:19:31 15° SSW 21:19:31 15° SSW visible
26 Sep -2.6 20:27:02 10° SSW 20:29:45 24° SE 20:29:53 24° SE visible
27 Sep -1.9 19:35:41 10° S 19:37:38 15° SE 19:39:34 10° E visible
27 Sep -3.0 21:10:23 10° WSW 21:12:44 44° SW 21:12:44 44° SW visible
28 Sep -3.5 20:18:11 10° SW 20:21:20 46° SSE 20:22:45 27° E visible
28 Sep -0.9 21:54:35 10° W 21:55:24 16° W 21:55:24 16° W visible
29 Sep -3.6 21:02:07 10° WSW 21:05:17 69° NW 21:05:17 69° NW visible
30 Sep -3.9 20:09:42 10° WSW 20:12:59 84° SSE 20:15:03 21° ENE visible
30 Sep -1.1 21:46:28 10° W 21:47:42 20° WNW 21:47:42 20° WNW visible
01 Oct -3.3 20:53:56 10° W 20:57:09 51° N 20:57:23 50° N visible
02 Oct -3.5 20:01:25 10° W 20:04:40 63° NNW 20:07:01 17° ENE visible
02 Oct -1.3 21:38:15 10° WNW 21:39:39 22° WNW 21:39:39 22° WNW visible
03 Oct -3.1 20:45:44 10° WNW 20:48:55 45° N 20:49:14 43° NNE visible
